Torna al catalogo

FENGYUN 2B AKM

AttivoGEO
NORAD 26460·ROCKET BODY·🇨🇳 China

Lanciato Jun 25, 2000 da Xichang Satellite Launch Center

Loading…

TLE

AggiornatoSource: Space-Track

Epoca: Sep 13, 2026, 16:10 UTC

1 26460U 00032C   26256.67413028 -.00000365  00000-0  00000-0 0  9990
2 26460  14.4710   5.5371 0021887  45.3348 314.8595  1.00177686123064

Traccia FENGYUN 2B AKM in tempo reale con AllMySat

Download on the App Store